Springfield, OH

9:17 AM EDT on April 27, 2017 (GMT -0400)
Springfield-Beckley Municipal

Weather History for KSGH - October, 2011

Change the Weather History Date:

Sunday, October 30, 2011

  Actual Average (KFFO) Record (KFFO)
Temperature  
Mean Temperature 40 °F -  
Max Temperature 55 °F 57 °F 78 °F (2004)
Min Temperature 25 °F 38 °F 26 °F (2008)
Degree Days  
Heating Degree Days 26    
Moisture  
Dew Point 28 °F    
Average Humidity 69    
Maximum Humidity 100    
Minimum Humidity 33    
Precipitation  
Precipitation 0.00 in - - ()
Sea Level Pressure  
Sea Level Pressure 30.22 in    
Wind  
Wind Speed 3 mph (South)    
Max Wind Speed 12 mph    
Max Gust Speed -    
Visibility 8 miles    
Events      
Averages and records for this station are not official NWS values.
T = Trace of Precipitation, MM = Missing Value Source: NWS Daily Summary

Daily Weather History Graph

Daily Weather History Graph

Search for Another Location

Airport or City:

Trip Planner

Search our weather history database for the weather conditions in past years. The results will help you decide how hot, cold, wet, or windy it might be!

Date:

Astronomy

Oct. 30, 2011 Rise Set
Actual Time 8:01 AM EDT 6:35 PM EDT
Civil Twilight 7:33 AM EDT 7:03 PM EDT
Nautical Twilight 7:01 AM EDT 7:35 PM EDT
Astronomical Twilight 6:30 AM EDT 8:06 PM EDT
Moon 12:19 PM EDT (10/30) 10:03 PM EDT (10/30)
Length of Visible Light 11h 30m
Length of Day
10h 34m
Waxing Crescent, 20% of the Moon is Illuminated
Oct 30
Waxing Crescent
Nov 2
First Quarter
Nov 10
Full
Nov 18
Last Quarter
Nov 25
New

Hourly Weather History & Observations

Time (EDT) Temp. Windchill Dew Point Humidity Pressure Visibility Wind Dir Wind Speed Gust Speed Precip Events Conditions
12:56 AM 29.1 °F - 28.0 °F 96% 30.17 in 7.0 mi Calm Calm - N/A   Clear
1:56 AM 29.1 °F 23.0 °F 28.0 °F 96% 30.18 in 6.0 mi SW 5.8 mph - N/A   Clear
2:56 AM 28.0 °F - 28.0 °F 100% 30.18 in 6.0 mi Calm Calm - N/A   Clear
3:56 AM 27.1 °F - 27.1 °F 100% 30.20 in 6.0 mi Calm Calm - N/A   Clear
4:56 AM 26.1 °F - 26.1 °F 100% 30.21 in 5.0 mi Calm Calm - N/A   Clear
5:56 AM 26.1 °F - 26.1 °F 100% 30.23 in 5.0 mi Calm Calm - N/A   Clear
6:56 AM 26.1 °F - 26.1 °F 100% 30.25 in 5.0 mi Calm Calm - N/A   Clear
7:56 AM 25.2 °F - 25.2 °F 100% 30.26 in 4.0 mi Calm Calm - N/A   Clear
8:56 AM 27.1 °F - 27.1 °F 100% 30.29 in 5.0 mi Calm Calm - N/A   Clear
9:56 AM 34.9 °F - 32.0 °F 89% 30.30 in 5.0 mi Calm Calm - N/A   Clear
10:56 AM 43.9 °F 41.3 °F 36.9 °F 76% 30.29 in 8.0 mi South 4.6 mph - N/A   Clear
11:56 AM 46.9 °F - 34.0 °F 61% 30.29 in 9.0 mi Variable 5.8 mph - N/A   Clear
12:56 PM 50.0 °F - 29.1 °F 45% 30.28 in 9.0 mi South 9.2 mph - N/A   Clear
1:56 PM 52.9 °F - 28.0 °F 38% 30.24 in 9.0 mi South 9.2 mph - N/A   Clear
2:56 PM 54.9 °F - 27.1 °F 34% 30.22 in 9.0 mi Variable 5.8 mph - N/A   Clear
3:56 PM 54.9 °F - 26.1 °F 33% 30.20 in 9.0 mi South 11.5 mph - N/A   Clear
4:56 PM 54.0 °F - 26.1 °F 34% 30.19 in 10.0 mi South 9.2 mph - N/A   Clear
5:56 PM 52.0 °F - 27.1 °F 38% 30.18 in 10.0 mi South 6.9 mph - N/A   Clear
6:56 PM 47.8 °F - 27.1 °F 45% 30.19 in 10.0 mi SSE 6.9 mph - N/A   Clear
7:56 PM 45.9 °F 42.3 °F 27.1 °F 48% 30.19 in 10.0 mi SSE 6.9 mph - N/A   Clear
8:56 PM 45.0 °F 40.6 °F 28.0 °F 52% 30.19 in 10.0 mi SSE 8.1 mph - N/A   Clear
9:56 PM 45.0 °F 41.2 °F 28.0 °F 52% 30.18 in 10.0 mi SSE 6.9 mph - N/A   Overcast
10:56 PM 39.9 °F 37.8 °F 29.1 °F 65% 30.19 in 10.0 mi SE 3.5 mph - N/A   Partly Cloudy
11:56 PM 41.9 °F 36.9 °F 29.1 °F 61% 30.17 in 10.0 mi SE 8.1 mph - N/A   Partly Cloudy